This demonstration page uses our WeatherBlox Daily Observations layout. Learn more.

Left ArrowRight Arrow

Hourly Observations for October 14, 2015

Temp ( °F °C ) Dew Point ( °F °C ) Humidity (%) Winds ( mph kmh ) Pressure ( in mb ) Visibility ( mi km ) Precip ( " mm )
12:15 am 00:15 Clear 63 17 50 10 64 64 NW 18 30 29.74 1007 10 16 N/A
12:35 am 00:35 Clear 63 17 50 10 64 64 NW 10 17 29.77 1008 10 16 N/A
12:55 am 00:55 Clear 61 16 50 10 68 68 NW 12 19 29.77 1008 10 16 N/A
1:15 am 01:15 Clear 61 16 50 10 68 68 NW 8 13 29.77 1008 10 16 N/A
1:35 am 01:35 Clear 61 16 50 10 68 68 WNW 13 20 29.77 1008 10 16 N/A
1:55 am 01:55 Clear 61 16 48 9 63 63 NW 8 13 29.77 1008 10 16 N/A
2:15 am 02:15 Clear 61 16 48 9 63 63 WNW 8 13 29.77 1008 10 16 N/A
2:35 am 02:35 Clear 59 15 48 9 68 68 NW 8 13 29.77 1008 10 16 N/A
2:55 am 02:55 Clear 61 16 48 9 63 63 WNW 9 15 29.77 1008 10 16 N/A
3:15 am 03:15 Clear 61 16 48 9 63 63 SSW 8 13 29.77 1008 10 16 N/A
3:35 am 03:35 Clear 57 14 50 10 77 77 WNW 8 13 29.77 1008 10 16 N/A
3:55 am 03:55 Clear 59 15 50 10 72 72 W 6 9 29.77 1008 10 16 N/A
4:15 am 04:15 Mostly Cloudy 59 15 50 10 72 72 SSW 8 13 29.77 1008 10 16 N/A
4:35 am 04:35 Mostly Cloudy 57 14 50 10 77 77 SSW 10 17 29.77 1008 10 16 N/A
4:55 am 04:55 Cloudy 57 14 50 10 77 77 SW 5 7 29.80 1009 10 16 N/A
5:15 am 05:15 Cloudy 59 15 50 10 72 72 WSW 5 7 29.80 1009 10 16 N/A
5:35 am 05:35 Cloudy 59 15 50 10 72 72 N N/A 29.80 1009 10 16 N/A
5:55 am 05:55 Cloudy 57 14 52 11 82 82 WSW 3 6 29.80 1009 10 16 N/A
6:15 am 06:15 Cloudy 59 15 50 10 72 72 WSW 3 6 29.80 1009 10 16 N/A
6:35 am 06:35 Cloudy 59 15 50 10 72 72 W 5 7 29.80 1009 10 16 N/A
6:55 am 06:55 Cloudy 57 14 52 11 82 82 SW 5 7 29.80 1009 10 16 N/A
7:15 am 07:15 Cloudy 57 14 52 11 82 82 SSW 9 15 29.80 1009 10 16 N/A
7:35 am 07:35 Cloudy 57 14 52 11 82 82 SSW 9 15 29.83 1010 10 16 N/A
7:55 am 07:55 Cloudy 59 15 52 11 77 77 N N/A 29.83 1010 10 16 N/A
8:15 am 08:15 Cloudy 59 15 52 11 77 77 SSW 9 15 29.83 1010 10 16 N/A
8:35 am 08:35 Cloudy 59 15 52 11 77 77 SW 6 9 29.83 1010 10 16 N/A
8:55 am 08:55 Mostly Cloudy 61 16 52 11 72 72 WNW 6 9 29.83 1010 10 16 N/A
9:15 am 09:15 Sunny 63 17 52 11 68 68 WNW 10 17 29.85 1011 10 16 N/A
9:35 am 09:35 Sunny 63 17 50 10 64 64 WNW 12 19 29.85 1011 10 16 N/A
9:55 am 09:55 Sunny 63 17 50 10 64 64 NW 17 28 29.85 1011 10 16 N/A
10:15 am 10:15 Partly Cloudy 64 18 50 10 60 60 WNW 17 28 29.85 1011 10 16 N/A
10:35 am 10:35 Partly Cloudy 64 18 50 10 60 60 WNW 20 31 29.85 1011 10 16 N/A
10:55 am 10:55 Mostly Cloudy 66 19 50 10 56 56 WNW 16 26 29.88 1012 10 16 N/A
11:15 am 11:15 Mostly Cloudy 64 18 48 9 56 56 WNW 13 20 29.85 1011 10 16 N/A
11:35 am 11:35 Partly Cloudy 66 19 50 10 56 56 WNW 16 26 29.85 1011 10 16 N/A
11:55 am 11:55 Mostly Cloudy 64 18 50 10 60 60 WNW 13 20 29.85 1011 10 16 N/A
12:15 pm 12:15 Mostly Cloudy 64 18 50 10 60 60 WNW 14 22 29.85 1011 10 16 N/A
12:35 pm 12:35 Mostly Cloudy 66 19 50 10 56 56 NW 14 22 29.85 1011 10 16 N/A
12:55 pm 12:55 Mostly Cloudy 68 20 50 10 53 53 W 14 22 29.85 1011 10 16 N/A
1:15 pm 13:15 Partly Cloudy 68 20 48 9 49 49 NW 14 22 29.85 1011 10 16 N/A
1:35 pm 13:35 Partly Cloudy 66 19 48 9 52 52 WNW 14 22 29.85 1011 10 16 N/A
1:55 pm 13:55 Mostly Cloudy 68 20 50 10 53 53 WNW 15 24 29.85 1011 10 16 N/A
2:15 pm 14:15 Cloudy 66 19 46 8 49 49 NNW 15 24 29.85 1011 10 16 N/A
2:35 pm 14:35 Cloudy 66 19 48 9 52 52 NW 9 15 29.85 1011 10 16 N/A
2:55 pm 14:55 Cloudy 66 19 46 8 49 49 NNW 17 28 29.85 1011 10 16 N/A
3:15 pm 15:15 Cloudy 64 18 46 8 52 52 NNW 21 33 29.85 1011 10 16 N/A
3:35 pm 15:35 Mostly Cloudy 68 20 46 8 46 46 NW 20 31 29.85 1011 10 16 N/A
3:55 pm 15:55 Mostly Cloudy 68 20 46 8 46 46 NW 15 24 29.85 1011 10 16 N/A
4:15 pm 16:15 Partly Cloudy 64 18 46 8 52 52 NW 13 20 29.85 1011 10 16 N/A
4:35 pm 16:35 Partly Cloudy 64 18 45 7 49 49 NNW 10 17 29.85 1011 10 16 N/A
4:55 pm 16:55 Partly Cloudy 66 19 45 7 46 46 NNW 13 20 29.85 1011 10 16 N/A
5:15 pm 17:15 Sunny 64 18 45 7 49 49 NNW 8 13 29.88 1012 10 16 N/A
5:35 pm 17:35 Sunny 64 18 45 7 49 49 NNW 10 17 29.88 1012 10 16 N/A
5:55 pm 17:55 Sunny 64 18 45 7 49 49 NNW 9 15 29.88 1012 10 16 N/A
6:15 pm 18:15 Sunny 63 17 45 7 52 52 NNW 9 15 29.88 1012 10 16 N/A
6:35 pm 18:35 Clear 61 16 45 7 55 55 NNW 9 15 29.91 1013 10 16 N/A
6:55 pm 18:55 Clear 61 16 45 7 55 55 NW 5 7 29.91 1013 10 16 N/A
7:15 pm 19:15 Clear 59 15 46 8 63 63 SW 3 6 29.91 1013 10 16 N/A
7:35 pm 19:35 Clear 59 15 46 8 63 63 SSW 7 11 29.91 1013 10 16 N/A
7:55 pm 19:55 Clear 55 13 46 8 72 72 WNW 9 15 29.91 1013 10 16 N/A
8:15 pm 20:15 Clear 55 13 45 7 67 67 WNW 6 9 29.94 1014 10 16 N/A
8:35 pm 20:35 Clear 57 14 45 7 63 63 W 3 6 29.94 1014 10 16 N/A
8:55 pm 20:55 Clear 54 12 45 7 72 72 W 8 13 29.94 1014 10 16 N/A
9:15 pm 21:15 Clear 54 12 45 7 72 72 WNW 9 15 29.94 1014 10 16 N/A
9:35 pm 21:35 Clear 55 13 45 7 67 67 NW 7 11 29.94 1014 10 16 N/A
9:55 pm 21:55 Clear 54 12 43 6 67 67 NW 6 9 29.94 1014 10 16 N/A
10:15 pm 22:15 Clear 52 11 46 8 82 82 NW 5 7 29.94 1014 10 16 N/A
10:35 pm 22:35 Partly Cloudy 54 12 45 7 72 72 NW 5 7 29.97 1015 10 16 N/A
10:55 pm 22:55 Partly Cloudy 52 11 46 8 82 82 NW 3 6 29.97 1015 10 16 N/A
11:15 pm 23:15 Partly Cloudy 52 11 45 7 77 77 WNW 3 6 29.97 1015 10 16 N/A
11:35 pm 23:35 Mostly Cloudy 50 10 46 8 88 88 W 3 6 29.97 1015 10 16 N/A
11:55 pm 23:55 Cloudy 50 10 46 8 88 88 W 5 7 29.97 1015 10 16 N/A

Powered by AerisWeather